OK1VCF-8 Weather Reports


time (UTC)temp
F
wind
direction
speed
knots
gust
knots
rain 1hr
in
rain 24hr
in
rain mn
in
humidity
%
barometer
mb
20260901024315 60 0 0.0 0.0 0.00 0.00 0.00 80 1020.1
20260901023558 60 0 0.0 0.0 0.00 0.00 0.00 79 1020.0
20260901022841 60 0 0.0 0.0 0.00 0.00 0.00 79 1020.0
20260901022125 60 0 0.0 0.0 0.00 0.00 0.00 78 1019.8
20260901015946 60 0 0.0 0.0 0.00 0.00 0.00 77 1019.6
20260901014945 60 0 0.0 0.0 0.00 0.00 0.00 76 1019.6
20260901014229 62 0 0.0 0.0 0.00 0.00 0.00 75 1019.6
20260901013514 62 0 0.0 0.0 0.00 0.00 0.00 74 1019.8
20260901012757 62 0 0.0 0.0 0.00 0.00 0.00 74 1019.6
20260901012035 62 0 0.0 0.0 0.00 0.00 0.00 74 1019.6
20260901011312 62 0 0.0 0.0 0.00 0.00 0.00 74 1019.5
20260901010544 62 0 0.0 0.0 0.00 0.00 0.00 72 1019.5
20260901005815 63 0 0.0 0.0 0.00 0.00 0.00 72 1019.5
20260901005049 63 0 0.0 0.0 0.00 0.00 0.00 71 1019.5
20260901002905 63 0 0.0 0.0 0.00 0.00 0.00 70 1019.4
20260901002139 62 0 0.0 0.0 0.00 0.00 0.00 70 1019.4
20260901001412 62 0 0.0 0.0 0.00 0.00 0.00 70 1019.4
20260901000645 62 0 0.0 0.0 0.00 0.00 0.00 70 1019.4
20260831235630 62 0 0.0 0.0 0.00 0.00 0.00 70 1019.4
20260831234854 62 0 0.0 0.0 0.00 0.00 0.00 70 1019.4
20260831234119 62 0 0.0 0.0 0.00 0.00 0.00 70 1019.2
20260831231915 62 0 0.0 0.0 0.00 0.00 0.00 72 1019.3
20260831231156 62 0 0.0 0.0 0.00 0.00 0.00 74 1019.3
20260831230438 61 0 0.0 0.0 0.00 0.00 0.00 75 1019.2
20260831225720 62 0 0.0 0.0 0.00 0.00 0.00 74 1019.1
20260831225003 62 0 0.0 0.0 0.00 0.00 0.00 74 1018.9
20260831224244 62 0 0.0 0.0 0.00 0.00 0.00 74 1019.0
20260831223526 60 0 0.0 0.0 0.00 0.00 0.00 78 1018.8
20260831222809 60 0 0.0 0.0 0.00 0.00 0.00 78 1018.8
20260831222049 60 0 0.0 0.0 0.00 0.00 0.00 77 1018.7
20260831221334 61 0 0.0 0.0 0.00 0.00 0.00 77 1018.8
20260831220332 62 0 0.0 0.0 0.00 0.00 0.00 76 1018.7
20260831215611 62 0 0.0 0.0 0.00 0.00 0.00 76 1018.7
20260831214854 62 0 0.0 0.0 0.00 0.00 0.00 75 1018.5
20260831214134 62 0 0.0 0.0 0.00 0.00 0.00 74 1018.5
20260831213416 62 0 0.0 0.0 0.00 0.00 0.00 74 1018.4
20260831212656 64 0 0.0 0.0 0.00 0.00 0.00 73 1018.2
20260831211937 64 0 0.0 0.0 0.00 0.00 0.00 73 1018.2
20260831211220 62 0 0.0 0.0 0.00 0.00 0.00 75 1018.1
20260831210502 62 0 0.0 0.0 0.00 0.00 0.00 74 1018.0
20260831205744 63 0 0.0 0.0 0.00 0.00 0.00 74 1018.0
20260831205026 62 0 0.0 0.0 0.00 0.00 0.00 74 1017.9
20260831204309 62 0 0.0 0.0 0.00 0.00 0.00 74 1017.8
20260831203550 62 0 0.0 0.0 0.00 0.00 0.00 74 1017.8
20260831202831 63 0 0.0 0.0 0.00 0.00 0.00 73 1017.8
20260831200405 64 0 0.0 0.0 0.00 0.00 0.00 72 1017.6
20260831195645 64 0 0.0 0.0 0.00 0.00 0.00 71 1017.4
20260831194927 64 0 0.0 0.0 0.00 0.00 0.00 70 1017.3
20260831194209 65 0 0.0 0.0 0.00 0.00 0.00 70 1017.4
20260831193450 64 0 0.0 0.0 0.00 0.00 0.00 70 1017.4
20260831192731 65 0 0.0 0.0 0.00 0.00 0.00 69 1017.4
20260831192012 65 0 0.0 0.0 0.00 0.00 0.00 70 1017.2
20260831191253 64 0 0.0 0.0 0.00 0.00 0.00 70 1017.1
20260831190534 64 0 0.0 0.0 0.00 0.00 0.00 68 1017.2
20260831185814 65 0 0.0 0.0 0.00 0.00 0.00 67 1017.0
20260831185056 66 0 0.0 0.0 0.00 0.00 0.00 66 1017.1
20260831184338 66 0 0.0 0.0 0.00 0.00 0.00 65 1017.0
20260831183620 66 0 0.0 0.0 0.00 0.00 0.00 64 1017.0
20260831182902 67 0 0.0 0.0 0.00 0.00 0.00 62 1017.0
20260831181857 68 0 0.0 0.0 0.00 0.00 0.00 60 1016.8
20260831181140 68 0 0.0 0.0 0.00 0.00 0.00 59 1016.7
20260831180422 68 0 0.0 0.0 0.00 0.00 0.00 57 1016.7
20260831175702 69 0 0.0 0.0 0.00 0.00 0.00 56 1016.5
20260831174942 70 0 0.0 0.0 0.00 0.00 0.00 54 1016.4
20260831174223 70 0 0.0 0.0 0.00 0.00 0.00 56 1016.4
20260831173503 70 0 0.0 0.0 0.00 0.00 0.00 54 1016.4
20260831172743 70 0 0.0 0.0 0.00 0.00 0.00 54 1016.2
20260831172023 71 0 0.0 0.0 0.00 0.00 0.00 54 1016.2
20260831171304 72 0 0.0 0.0 0.00 0.00 0.00 53 1016.2
20260831170544 72 0 0.0 0.0 0.00 0.00 0.00 52 1016.2
20260831165824 73 0 0.0 0.0 0.00 0.00 0.00 50 1016.0
20260831165105 74 0 0.0 0.0 0.00 0.00 0.00 48 1016.1
20260831164347 75 0 0.0 0.0 0.00 0.00 0.00 46 1016.0
20260831163628 83 0 0.0 0.0 0.00 0.00 0.00 38 1016.0
20260831162624 84 0 0.0 0.0 0.00 0.00 0.00 38 1016.2
20260831161905 82 0 0.0 0.0 0.00 0.00 0.00 41 1016.2
20260831161146 76 0 0.0 0.0 0.00 0.00 0.00 46 1016.2
20260831160428 80 0 0.0 0.0 0.00 0.00 0.00 42 1016.2
20260831155708 84 0 0.0 0.0 0.00 0.00 0.00 38 1016.1
20260831154949 82 0 0.0 0.0 0.00 0.00 0.00 40 1016.0
20260831154231 83 0 0.0 0.0 0.00 0.00 0.00 40 1016.1
20260831153511 85 0 0.0 0.0 0.00 0.00 0.00 36 1016.0
20260831152752 86 0 0.0 0.0 0.00 0.00 0.00 38 1016.0
20260831152032 84 0 0.0 0.0 0.00 0.00 0.00 39 1016.2
20260831151313 82 0 0.0 0.0 0.00 0.00 0.00 40 1016.3
20260831150553 77 0 0.0 0.0 0.00 0.00 0.00 46 1016.4
20260831145831 78 0 0.0 0.0 0.00 0.00 0.00 48 1016.3
20260831145113 78 0 0.0 0.0 0.00 0.00 0.00 46 1016.4
20260831144352 80 0 0.0 0.0 0.00 0.00 0.00 46 1016.4
20260831143348 80 0 0.0 0.0 0.00 0.00 0.00 45 1016.4
20260831142628 78 0 0.0 0.0 0.00 0.00 0.00 46 1016.4
20260831141909 80 0 0.0 0.0 0.00 0.00 0.00 47 1016.5
20260831141152 78 0 0.0 0.0 0.00 0.00 0.00 48 1016.5
20260831140432 76 0 0.0 0.0 0.00 0.00 0.00 50 1016.6
20260831135712 78 0 0.0 0.0 0.00 0.00 0.00 48 1016.4
20260831134953 78 0 0.0 0.0 0.00 0.00 0.00 48 1016.4
20260831134234 77 0 0.0 0.0 0.00 0.00 0.00 48 1016.4
20260831133515 76 0 0.0 0.0 0.00 0.00 0.00 48 1016.4
20260831132755 76 0 0.0 0.0 0.00 0.00 0.00 50 1016.6
20260831132033 78 0 0.0 0.0 0.00 0.00 0.00 50 1016.6
20260831131315 77 0 0.0 0.0 0.00 0.00 0.00 51 1016.6
20260831130555 76 0 0.0 0.0 0.00 0.00 0.00 52 1016.6
20260831125832 76 0 0.0 0.0 0.00 0.00 0.00 50 1016.7
20260831125106 78 0 0.0 0.0 0.00 0.00 0.00 48 1016.8
20260831124050 78 0 0.0 0.0 0.00 0.00 0.00 50 1016.8
20260831123322 76 0 0.0 0.0 0.00 0.00 0.00 52 1016.7
20260831122556 74 0 0.0 0.0 0.00 0.00 0.00 54 1016.6
20260831121823 74 0 0.0 0.0 0.00 0.00 0.00 58 1016.8
20260831121054 76 0 0.0 0.0 0.00 0.00 0.00 54 1016.7
20260831120317 75 0 0.0 0.0 0.00 0.00 0.00 55 1016.6
20260831115534 74 0 0.0 0.0 0.00 0.00 0.00 56 1016.8
20260831114759 74 0 0.0 0.0 0.00 0.00 0.00 58 1016.7
20260831114024 74 0 0.0 0.0 0.00 0.00 0.00 58 1016.8
20260831113256 76 0 0.0 0.0 0.00 0.00 0.00 59 1016.8
20260831112528 76 0 0.0 0.0 0.00 0.00 0.00 60 1016.8
20260831111802 75 0 0.0 0.0 0.00 0.00 0.00 62 1016.8
20260831111038 74 0 0.0 0.0 0.00 0.00 0.00 64 1017.0
20260831110319 74 0 0.0 0.0 0.00 0.00 0.00 64 1017.0
20260831105559 74 0 0.0 0.0 0.00 0.00 0.00 65 1017.0
20260831104556 73 0 0.0 0.0 0.00 0.00 0.00 68 1017.0
20260831103836 74 0 0.0 0.0 0.00 0.00 0.00 67 1017.0
20260831103118 74 0 0.0 0.0 0.00 0.00 0.00 69 1017.0
20260831102359 72 0 0.0 0.0 0.00 0.00 0.00 72 1017.0
20260831101640 74 0 0.0 0.0 0.00 0.00 0.00 70 1016.9
20260831100921 74 0 0.0 0.0 0.00 0.00 0.00 73 1016.8
20260831100201 74 0 0.0 0.0 0.00 0.00 0.00 74 1017.0
20260831095441 72 0 0.0 0.0 0.00 0.00 0.00 78 1017.1
20260831094723 72 0 0.0 0.0 0.00 0.00 0.00 76 1017.0
20260831094003 74 0 0.0 0.0 0.00 0.00 0.00 74 1017.0
20260831093245 73 0 0.0 0.0 0.00 0.00 0.00 75 1017.0
20260831092528 72 0 0.0 0.0 0.00 0.00 0.00 77 1017.0
20260831091810 71 0 0.0 0.0 0.00 0.00 0.00 78 1017.1
20260831091052 70 0 0.0 0.0 0.00 0.00 0.00 80 1017.1
20260831090334 69 0 0.0 0.0 0.00 0.00 0.00 84 1017.0
20260831085331 68 0 0.0 0.0 0.00 0.00 0.00 90 1017.0
20260831084614 66 0 0.0 0.0 0.00 0.00 0.00 91 1016.9
20260831083855 65 0 0.0 0.0 0.00 0.00 0.00 92 1016.7
20260831083137 64 0 0.0 0.0 0.00 0.00 0.00 92 1016.8
20260831082419 64 0 0.0 0.0 0.00 0.00 0.00 92 1016.7
20260831081700 64 0 0.0 0.0 0.00 0.00 0.00 93 1016.6
20260831080941 64 0 0.0 0.0 0.00 0.00 0.00 93 1016.3
20260831074759 62 0 0.0 0.0 0.00 0.00 0.00 94 1016.0
20260831074040 62 0 0.0 0.0 0.00 0.00 0.00 94 1016.0
20260831073321 62 0 0.0 0.0 0.00 0.00 0.00 94 1015.9
20260831072601 62 0 0.0 0.0 0.00 0.00 0.00 94 1016.2
20260831071840 62 0 0.0 0.0 0.00 0.00 0.00 94 1016.2
20260831071119 61 0 0.0 0.0 0.00 0.00 0.00 94 1016.4
20260831070109 60 0 0.0 0.0 0.00 0.00 0.00 93 1016.6
20260831065344 60 0 0.0 0.0 0.00 0.00 0.00 93 1017.0
20260831064620 60 0 0.0 0.0 0.00 0.00 0.00 92 1016.9
20260831063849 61 0 0.0 0.0 0.00 0.00 0.00 92 1016.7
20260831063127 61 0 0.0 0.0 0.00 0.00 0.00 90 1017.1
20260831062402 62 0 0.0 0.0 0.00 0.00 0.00 88 1016.5
20260831061638 66 0 0.0 0.0 0.00 0.00 0.00 77 1015.2
20260831060916 66 0 0.0 0.0 0.00 0.00 0.00 77 1014.6
20260831060152 66 0 0.0 0.0 0.00 0.00 0.00 77 1014.6
20260831055428 66 0 0.0 0.0 0.00 0.00 0.00 78 1014.6
20260831054706 66 0 0.0 0.0 0.00 0.00 0.00 77 1014.4
20260831053948 66 0 0.0 0.0 0.00 0.00 0.00 77 1014.8
20260831053231 66 0 0.0 0.0 0.00 0.00 0.00 78 1014.7
20260831052511 65 0 0.0 0.0 0.00 0.00 0.00 78 1014.8
20260831051755 64 0 0.0 0.0 0.00 0.00 0.00 79 1014.8
20260831050753 64 0 0.0 0.0 0.00 0.00 0.00 79 1014.8
20260831050033 64 0 0.0 0.0 0.00 0.00 0.00 80 1014.8
20260831045314 64 0 0.0 0.0 0.00 0.00 0.00 80 1014.9
20260831044555 64 0 0.0 0.0 0.00 0.00 0.00 81 1015.0
20260831043838 63 0 0.0 0.0 0.00 0.00 0.00 82 1014.9
20260831043119 62 0 0.0 0.0 0.00 0.00 0.00 84 1014.8
20260831042400 62 0 0.0 0.0 0.00 0.00 0.00 83 1014.8
20260831041642 62 0 0.0 0.0 0.00 0.00 0.00 84 1014.8
20260831040925 63 0 0.0 0.0 0.00 0.00 0.00 83 1015.1
20260831040207 62 0 0.0 0.0 0.00 0.00 0.00 84 1015.2
20260831035449 62 0 0.0 0.0 0.00 0.00 0.00 84 1015.0
20260831034732 62 0 0.0 0.0 0.00 0.00 0.00 84 1015.0
20260831034013 62 0 0.0 0.0 0.00 0.00 0.00 84 1015.2
20260831033257 62 0 0.0 0.0 0.00 0.00 0.00 84 1015.2
20260831032539 62 0 0.0 0.0 0.00 0.00 0.00 83 1015.2
20260831031537 62 0 0.0 0.0 0.00 0.00 0.00 84 1015.6
20260831030820 62 0 0.0 0.0 0.00 0.00 0.00 84 1015.6
20260831025344 62 0 0.0 0.0 0.00 0.00 0.00 83 1015.6
20260831024627 64 0 0.0 0.0 0.00 0.00 0.00 82 1015.8